Regional Weather Roundup
Issued by NWS Mobile, AL

Home | Current Version | Previous Version | Text Only | Print | Product List | Glossary On
Versions: 1 2 3 4 5 6 7 8 9 10 11 12 13 14 15 16 17 18 19 20 21 22 23 24 25 26 27 28 29 30 31 32 33 34 35 36 37 38 39 40 41 42 43 44 45 46 47 48 49 50
000
ASUS44 KMOB 010410
RWRMOB
REGIONAL WEATHER ROUNDUP
NATIONAL WEATHER SERVICE MOBILE AL
1000 PM CST SAT FEB 28 2015

NOTE: "FAIR" INDICATES FEW OR NO CLOUDS BELOW 12,000 FEET WITH NO
      SIGNIFICANT WEATHER AND/OR OBSTRUCTIONS TO VISIBILITY.

  * THESE STATIONS ARE PART OF THE UNIVERSITY OF SOUTH ALABAMA
    MESONET AND ARE NOT UNDER NWS OR FAA QUALITY CONTROL.

ALZ061>064-010500-
COASTAL ALABAMA

CITY           SKY/WX    TMP DP  RH WIND       PRES   REMARKS
MOBILE REG APT CLOUDY    55  50  83 E9        30.40S
BROOKLEY FIELD CLOUDY    56  50  80 E9        30.42R
USA CAMPUS*      N/A     57  50  77 E8        30.40S
DOG RIVER*     NOT AVBL


CITY           SKY/WX    TMP DP  RH WIND       PRES   REMARKS
MOUNT VERNON*    N/A     55  48  76 S5        30.43R
SARALAND*      NOT AVBL
BAY MINETTE*   NOT AVBL
LOXLEY*          N/A     54  50  87 NE8       30.42R
ROBERTSDALE*     N/A     54  50  87 E2        30.41R
FAIRHOPE*        N/A     54  50  87 E12       30.40R
ELBERTA*         N/A     54  50  87 E6        30.40S
FOLEY*         NOT AVBL
GRAND BAY*       N/A     55  52  88 CALM      30.37F
DAUPHIN ISLND* NOT AVBL
BON SCOUR NWR* NOT AVBL
GULF SHORES    CLOUDY    54  49  86 E10       30.41R

$$

ALZ051>060-010500-
INTERIOR SOUTHWEST AND SOUTH CENTRAL ALABAMA

CITY           SKY/WX    TMP DP  RH WIND       PRES   REMARKS
GREENVILLE     CLOUDY    49  45  86 E10G16    30.45S
EVERGREEN      CLOUDY    52  48  86 E13       30.45R
CASTLEBERRY*   NOT AVBL
ATMORE*          N/A     50  48  93 E13       30.44R
DIXIE*           N/A     48  48 100 E2        30.42R
ANDALUSIA/OPP  CLOUDY    51  44  77 SE13      30.46S
ANDALUSIA*       N/A     48  46  93 E15       30.44R
FLORALA APT    LGT RAIN  48  46  93 E10       30.46R FOG
FLORALA*         N/A     48  46  93 NE7       30.41S

$$

FLZ001>006-010500-
WESTERN FLORIDA PANHANDLE

CITY           SKY/WX    TMP DP  RH WIND       PRES   REMARKS
PENSACOLA      CLOUDY    51  48  89 NE8       30.42R
NAS PENSACOLA  CLOUDY    52  49  89 NE13      30.41R
MILTON         CLOUDY    49  47  93 NE8       30.43R FOG
WHTNG S FIELD  CLOUDY    52  48  86 E10       30.43R FOG


CITY           SKY/WX    TMP DP  RH WIND       PRES   REMARKS
WALNUT HILL*   NOT AVBL
JAY*             N/A     50  46  87 E10       30.44R
DUKE FIELD     CLOUDY    48  46  92 VRB6      30.43R
CRESTVIEW      CLOUDY    48  47  96 NE6       30.45R
VALPARAISO     LGT RAIN  49  47  92 E13       30.42R
DESTIN         CLOUDY    50  47  89 NE9       30.43R

$$

MSZ076-079-010500-
INTERIOR SOUTHEAST MISSISSIPPI

CITY           SKY/WX    TMP DP  RH WIND       PRES   REMARKS
LEAKESVILLE*     N/A     54  48  82 E8        30.37F
AGRICOLA*      NOT AVBL

$$

MARINE OBSERVATIONS

STATION/POSITION TIME  TEMP    WIND        PRES    WAVE
                       AIR SEA DIR/SP/G            HT/PER
                 (UTC) (F)     (DEG/KT/KT) (MB)    (FT/S)
PASCAGOULA       0400   57     100/  9/ 14 1028.5F
PETIT BOIS ISLND 0400   57      90/ 10/ 12 1029.2F
GRAND BAY        0300   55     120/  7     1029.0S
KATRINA CUT      0300   55      90/ 14     1029.8R
CEDAR POINT      0300   53      90/  7     1029.1R
E DAUPHIN ISLAND 0300   56      90/  9/  9 1028.9R
MIDDLE BAY LIGHT 0300   54      80/  7     1029.1R
USCG MOBILE BAY  0400   56 51   80/  7/  9 1028.9S
STATE DOCKS      0400   56 48              1029.7S
MEAHER PARK      0300   56      80/  5     1030.1R
WEEKS BAY        0300   57                   N/A
FORT MORGAN      0400   56     110/ 11/ 14 1029.0R
12 S ORANGE BCH  0400   56 61   80/ 19/ 23 1028.4R   5/ 7
PENSACOLA BAY    0400   54 53   70/  5/ 10 1030.2R
64 S DAUPHIN ISL 0349   64 70   90/ 17/ 21 1028.0R   6/ 7

$$

SELECTED LOCATIONS ACROSS THE REGION

CITY           SKY/WX    TMP DP  RH WIND       PRES   REMARKS
NEW ORLEANS    PTCLDY    57  51  80 E10       30.34S
GULFPORT       CLOUDY    56  52  86 SE14      30.38R
PASCAGOULA AP  CLOUDY    56  51  84 E6        30.38F
PASCAGOULA*    NOT AVBL
HATTIESBURG    CLOUDY    51  44  77 CALM      30.39R
LAUREL         PTCLDY    55  45  67 SE5       30.38S
MERIDIAN       CLEAR     44  38  79 S3        30.38F
JACKSON        CLOUDY    55  34  45 SE7       30.35R
MONTGOMERY     CLOUDY    52  43  71 E15G21    30.48R
TROY           LGT RAIN  48  44  86 E7        30.48F
KINSTON*       NOT AVBL
GENEVA*          N/A     46  45  93 E3        30.48S
ASHFORD*         N/A     48  46  93 E15       30.44R
DOTHAN         CLOUDY    46  43  89 E9        30.50S
PANAMA CITY    CLOUDY    49  46  90 NE10      30.42R

$$



USA.gov is the U.S. government's official web portal to all federal, state and local government web resources and services.